#timestamp,LO_Frequency,Hit,StdDev 
1583038815.6,286046963.7,N
1583038835.4,286046957.0,N
1583038855.3,286046956.2,N
1583038875.1,286046952.8,Y
1583038895.8,286046981.6,P
1583038915.7,286046972.4,P
1583038935.5,286046972.1,P
1583038955.4,286046969.5,Y
1583038975.2,286047000.7,P
1583038995.0,286047003.1,N
1583038995.9,286047003.1,N
1583039015.8,286047006.4,N
1583039035.6,286047007.0,N
1583039055.4,286047000.7,N
1583039075.3,286047003.2,N
1583039095.1,286046995.7,N
1583039115.9,286046994.1,N
1583039135.7,286047001.1,N
1583039155.5,286047002.1,N
1583039175.4,286047001.3,N
1583039195.2,286047005.1,N
1583039215.0,286046999.4,N
1583039215.9,286046999.4,N
1583039235.8,286046994.7,N
1583039255.6,286046983.0,N
1583039275.5,286046978.4,N
1583039295.3,286046971.9,Y
1583039315.1,286046967.6,P
1583039335.9,286046965.5,N
1583039355.7,286046958.8,N
1583039375.6,286046963.2,N
1583039395.4,286046972.4,N
1583039415.2,286046978.8,N
1583039435.1,286046991.6,N
1583039436.0,286046991.6,N
1583039455.8,286046990.3,N
1583039475.6,286047002.3,N
1583039495.5,286047010.0,N
1583039515.3,286047017.4,N
1583039535.1,286047028.6,N
1583039555.9,286047027.1,N
1583039575.7,286047028.8,N
1583039595.6,286047026.5,N
1583039615.4,286047024.1,N
1583039635.2,286047029.0,N
1583039655.1,286047034.7,N
1583039656.0,286047034.7,N
1583039675.8,286047040.4,N
1583039695.6,286047035.2,N
1583039715.5,286047025.6,N
1583039735.3,286047018.2,N
1583039755.2,286047009.2,N
1583039775.9,286047002.5,N
1583039795.7,286046991.1,N
1583039815.6,286046993.8,N
1583039835.4,286046994.1,N
1583039855.3,286046995.6,N
1583039875.1,286047005.7,N
1583039876.0,286047005.7,N
1583039895.8,286047010.0,N
1583039915.7,286047010.3,N
1583039935.5,286047012.4,N
1583039955.3,286047013.5,N
1583039975.2,286047005.8,N
1583039995.0,286047001.1,N
1583039995.9,286047001.1,N
1583040015.8,286046997.9,N
1583040035.6,286046990.1,N
1583040055.4,286046989.1,N
1583040075.3,286046984.6,N
1583040095.1,286046980.6,N
1583040115.9,286046976.2,N
1583040135.7,286046979.1,N
1583040155.5,286046987.4,N
1583040175.4,286046994.1,N
1583040195.2,286047000.7,N
1583040215.0,286047002.9,N
1583040215.9,286047002.9,N
1583040235.8,286047009.6,N
1583040255.6,286047010.6,N
1583040275.5,286047020.4,N
1583040295.3,286047019.5,N
1583040315.1,286047015.9,N
1583040335.9,286047013.5,N
1583040355.7,286047017.7,N
1583040375.5,286047024.7,N
1583040395.4,286047024.7,N
1583040415.2,286047022.3,N
1583040435.1,286047029.6,N
1583040436.0,286047029.6,N
1583040455.8,286047027.5,N
1583040475.6,286047028.5,N
1583040495.5,286047025.1,N
1583040515.3,286047020.8,N
1583040535.1,286047028.0,N
1583040555.9,286047026.9,N
1583040575.7,286047026.2,N
1583040595.6,286047026.6,N
1583040615.4,286047028.2,N
1583040635.2,286047032.4,N
1583040655.1,286047025.7,N
1583040656.0,286047025.7,N
1583040675.8,286047021.4,N
1583040695.7,286047019.2,N
1583040715.5,286047023.0,N
1583040735.3,286047026.8,Y
1583040755.2,286047006.5,P
1583040775.0,286047007.9,N
1583040775.9,286047007.9,N
1583040795.7,286047019.9,Y
1583040815.6,286047013.4,P
1583040835.4,286047014.2,P
1583040855.3,286047018.5,P
1583040875.1,286047022.8,Y
1583040895.8,286047012.4,P
1583040915.7,286047008.1,P
1583040935.5,286047003.0,N
1583040955.4,286047002.7,N
1583040975.2,286046995.2,N
1583040995.0,286046999.4,N
1583040996.0,286046999.4,N
1583041015.8,286047010.0,N
1583041035.6,286047017.0,N
1583041055.5,286047011.9,N
1583041075.3,286047015.3,N
1583041095.1,286047018.0,N
1583041115.9,286047019.3,N
1583041165.7,286047010.6,E
1583041175.7,286047008.6,N
1583041195.5,286047004.8,P
1583041215.3,286047005.1,N
1583041235.2,286047000.1,N
1583041255.0,286047002.5,N
1583041255.9,286047002.5,N
1583041275.8,286047009.6,Y
1583041295.6,286047006.3,P
1583041315.4,286047010.9,P
1583041335.3,286047015.5,P
1583041355.1,286047009.7,N
1583041375.8,286047015.3,Y
1583041395.7,286047005.0,P
1583041415.5,286047003.6,N
1583041435.4,286047002.1,N
1583041455.2,286047003.9,N
1583041475.0,286047002.4,N
1583041475.9,286047002.4,N
1583041495.8,286047007.3,Y
1583041515.6,286047002.2,P
1583041535.5,286046997.5,N
1583041555.3,286046992.6,N
1583041575.1,286046992.2,N
1583041595.9,286046990.2,N
1583041615.7,286046994.6,N
1583041635.5,286046991.3,N
1583041655.4,286046989.8,N
1583041675.2,286046996.2,N
1583041695.1,286046996.1,N
1583041696.0,286046996.1,N
1583041715.8,286046992.7,N
1583041735.6,286046990.6,N
1583041755.5,286046986.9,Y
1583041775.3,286046992.5,P
1583041795.1,286046994.3,P
1583041815.9,286046987.1,P
1583041835.7,286046993.1,N
1583041855.6,286046993.5,N
1583041875.4,286046998.4,N
1583041895.3,286047002.4,N
1583041915.1,286047003.2,N
1583041935.9,286046997.3,N
1583041955.7,286046997.7,N
1583041975.5,286046997.5,N
1583041995.4,286046991.8,N
1583042015.2,286046996.0,N
1583042035.1,286047002.3,N
1583042036.0,286047002.3,N
1583042055.8,286046999.4,N
1583042075.6,286047002.5,N
1583042095.5,286047002.3,N
1583042115.3,286046998.9,N
1583042135.2,286047000.9,N
1583042155.9,286047000.4,N
1583042175.7,286047000.1,N
1583042195.6,286047001.5,N
1583042215.4,286047002.1,N
1583042235.2,286047002.6,N
1583042255.1,286047002.8,N
1583042256.0,286047002.8,N
1583042275.8,286047007.1,N
1583042295.7,286047011.9,N
1583042315.5,286047013.8,N
1583042335.3,286047005.3,N
1583042355.2,286047002.8,N
1583042375.0,286047000.4,N
1583042375.9,286047000.4,N
1583042395.8,286046997.1,N
